{"data":{"norad_id":57842,"epoch":"2026-05-24T15:08:32.689824Z","epoch_age_seconds":107716,"freshness":"FRESH","line1":"1 57842U 23141C   26144.63093391  .00049793  00000+0  15855-2 0  9995","line2":"2 57842  53.1616 291.3106 0006359 113.9188 246.2480 15.32089327151953","mean_motion":15.32089327,"eccentricity":0.0006359,"inclination_deg":53.1616,"raan_deg":291.3106,"arg_perigee_deg":113.9188,"mean_anomaly_deg":246.248,"bstar":0.0015855,"rev_number":15195,"period_min":93.989297792426,"perigee_km":465.22521443322,"apogee_km":473.93414050363,"semimajor_km":6847.7166774684,"source":"CELESTRAK","updated_at":"2026-05-25T13:38:18.413739Z"}}